Погода Усть-Кулом

Погода Усть-Кулом : погода сейчас, прогноз погоды и архив. Всё, что Вы хотите узнать о погоде Усть-Кулом!

Поиск расширенной информации на нашем сайте:

Другие новости

Новости СМИ2

Главная страница сайта

Новости сайта

03.07.2017

Напоминаем, что на нашем специализированном сайте Метеоцентр.Азия вы можете получить высокодетализированные автоматические прогнозы погоды по пунктам России, СНГ и мира в авиационном формате (включающие направление и скорость ветра, видимость, явления погоды, количество и форму облачности, нижнюю и верхнюю границу облачности).


Погода Усть-Кулом - сегодня

Время (UTC), дата Ветер
(°,м/с) 
Видим.   Явления Облачность Т
(°С)
Тd
(°С)
f(%) Тe
(°С)
Pmin
(гПа)
dP
(гПа)
Po
(мм)
O2
(г/м3)
Тmin Tmax R s Состояние
почвы
00 19.07.18 050 (СВ) 20000 м    3/0 верхняя 
[Ci sp]
+15 +10.7 75 +18  1017.2  0.1  750  285           
06 19.07.18 060 (СВ) 20000 м    ясно 
+22.5 +12.9 55 +28  1017.5  0.3  751  277           
09 19.07.18 090 (В) 20000 м    8/6 1110 м верхняя 
[Cu hum|Ci fib]
+25.6 +12.8 45 +31  1017.3  -0.1  751  274           
18 19.07.18 060 (СВ) 20000 м    8/0 средняя, верхняя 
[As trans|Ci ing]
+20 +10.3 54 +22  1018.9  1.1  752  280           
21 19.07.18 060 (СВ) 20000 м    ясно 
+17.6 +10.1 61 +19  1019.9  0.8  752  283           
00 20.07.18 070 (В) 20000 м    ясно 
+15.7 +10.2 70 +17  1020.8  0.8  753  285           
06 20.07.18 060 (СВ) 20000 м    ясно 
+22.5 +10.6 47 +24  1021.6  0.1  754  279           
09 20.07.18 090 (В) 20000 м    6/6 1050 м 
[Cu hum]
+23.3 +9.9 43 +24  1021.4  -0.1  754  278           
12 20.07.18 060 (СВ) 20000 м    6/4 1000 м верхняя 
[Cu hum|Ci fib]
+25.3 +9.6 37 +26  1021.1  -0.2  753  276           
15 20.07.18 060 (СВ) 20000 м    ясно 
+24.4 +9.5 39 +25  1020.8  -0.4  753  277    +25.5       
18 20.07.18 060 (СВ) 20000 м    ясно 
+19.4 +10.6 57 +22  1021.6  0.5  753  282           
21 20.07.18 110 (В) 20000 м    ясно 
+17.5 +10.2 62 +19  1023.1  1.4  755  284           
00 21.07.18 100 (В) 20000 м    ясно 
+14.7 +9.3 70 +15  1024.7  1.4  756  287           
06 21.07.18 150 (ЮВ) 20000 м    3/3 1000 м 
[Cu hum]
+21.4 +9.3 46 +22  1024.8  -0.2  756  281           
09 21.07.18 120 (ЮВ) 20000 м    4/4 1000 м 
[Cu hum]
+23.6 +6.8 34 +24  1024  -0.7  755  279           
12 21.07.18 120 (ЮВ) 20000 м    1/1 1000 м 
[Cu hum]
+24.2 +6.9 33 +24  1023  -0.9  755  278           
15 21.07.18 100 (В) 20000 м    ясно 
+23.9 +7.1 34 +24  1021.9  -1.1  754  278    +24.6       
18 21.07.18 070 (В) 20000 м    ясно 
+17.9 +9.2 57 +19  1022.3  754  283           
21 21.07.18 090 (В) 20000 м    ясно 
+12.9 +8.7 76 +14  1023.2  0.6  754  289           
00 22.07.18 100 (В) 20000 м    ясно 
+13.2 +8.1 71 +13  1024.8  1.6  756  289           
06 22.07.18 140 (ЮВ) 20000 м    ясно 
+21.3 +9.1 46 +21  1024.5  -0.3  756  281           
09 22.07.18 120 (ЮВ) 20000 м    ясно 
+23 +6.9 35 +23  1023.7  -0.7  755  280           
12 22.07.18 140 (ЮВ) 20000 м    ясно 
+24 +6.2 32 +24  1022.3  -1.3  754  278           
15 22.07.18 170 (Ю) 20000 м    ясно 
+23.4 +6.4 33 +23  1021.5  -0.9  754  279    +24.1       
18 22.07.18 130 (ЮВ) 20000 м    ясно 
+17.9 +8 52 +19  1022  0.2  754  284           
Время (UTC), дата Ветер
(°,м/с) 
Видим.   Явления Облачность Т
(°С)
Тd
(°С)
f(%) Тe
(°С)
Pmin
(гПа)
dP
(гПа)
Po
(мм)
O2
(г/м3)
Тmin Tmax R s Состояние
почвы

Для получения пояснительной информации подведите курсор к названию столбца.

ПОГОДА Усть-Кулом - архив

Всё, что Вы хотите узнать о погоде Усть-Кулом - удобно и подробно!

Выберите нужную дату (начиная с 1 января 2015* года) и нажмите кнопку "Найти".
Будут отображены архивные сводки погоды по пункту Усть-Кулом, начиная с указанной даты.


Отображать данные в формате CSV (для использования в таблицах Excel)


Внимание! Наш архив погоды предназначен исключительно для личного некоммерческого использования в познавательных целях. Если Вам необходимы официальные справки о состоянии погоды (для производственных, юридических, коммерческих и т.п. целей), обращайтесь в органы Росгидромета.

*Примечание: данная дата относится к архиву по метеостанциям СССР (Россия, СНГ, Балтия).
Архив по метеостанциям Зарубежной Европы и Азии (кроме Китая) хранится 10 дней, по другим регионам земного шара (Китай, Африка, Америка, Австралия, Океания) - 1 день.

Усть-Кулом - район местоположения метеостанции


Название, широта, долгота, высота метеостанции:
Усть-Кулом 61.7°ш. 53.7°д. 144 м над ур. моря [Российская Федерация]

Дополнительная информация

В oтличие oт бoльшинства пoгoдных сайтoв мы публикуем пoдрoбную метеoинфoрмацию в детальнoм прoфессиoнальнoм фoрмате.

Характеристики температуры и влажнoсти вoздуха измеряются на высoте 2 м в тени вдали oт зданий и деревьев.
Скoрoсть ветра измеряется на высoте 10 м (на урoвне рoста челoвека скoрoсть ветра ниже в 1.5-2 раза). Если метеoстанция нахoдится в гoрoде или в лесу, тo скoрoсть ветра занижена на 2-4 м/с пo сравнению с oткрытым местoм. Скoрoсть ветра над акватoриями крупных рек и oзёр, а также на вершинах хoлмoв на 2-5 м/с выше, чем в oбычных услoвиях.
Атмoсфернoе давление в разных тoчках местнoсти мoжет значительнo oтличаться oт давления на метеoстанции, в зависимoсти oт услoвий рельефа (при пoдъёме на 10 м давление пoнижается примернo на 1 мм рт.ст.).